• In United Kingdom
  • List of Countries
  • For 7 days
  • Water Temperature
  • Satellite Maps
  • Weather Map
  • Weather Widgets
  • user-avatar
    Login

    Hourly Weather Linz

    Today, 21 July, Friday

    Time Temperature Precipitation Wind Pressure Humidity
    00:00 +20°C° 1 mm 1 mps 733 mmHg 97%
    01:00 +20°C° 1 mm 1 mps 733 mmHg 96%
    02:00 +20°C° 0.1 mm 1 mps 733 mmHg 96%
    03:00 +19°C° 0.1 mm 1 mps 733 mmHg 96%
    04:00 +17°C° 0.1 mm 0 mps 733 mmHg 95%
    05:00 +18°C° 0 mm 0 mps 733 mmHg 94%
    06:00 +19°C° 0 mm 0 mps 733 mmHg 92%
    07:00 +19°C° 0 mm 0 mps 734 mmHg 91%
    08:00 +21°C° 0 mm 0 mps 734 mmHg 81%
    09:00 +25°C° 0 mm 1 mps 734 mmHg 71%
    10:00 +27°C° 0 mm 1 mps 734 mmHg 62%
    11:00 +28°C° 0 mm 1 mps 734 mmHg 58%
    12:00 +29°C° 0 mm 2 mps 733 mmHg 54%
    13:00 +30°C° 0 mm 2 mps 733 mmHg 49%
    14:00 +30°C° 0 mm 2 mps 733 mmHg 50%
    15:00 +30°C° 0 mm 3 mps 732 mmHg 51%
    16:00 +30°C° 0 mm 3 mps 732 mmHg 51%
    17:00 +28°C° 0 mm 3 mps 732 mmHg 59%
    18:00 +27°C° 0 mm 3 mps 732 mmHg 66%
    19:00 +25°C° 0 mm 2 mps 732 mmHg 73%
    20:00 +24°C° 0.1 mm 2 mps 732 mmHg 76%
    21:00 +23°C° 0.1 mm 2 mps 732 mmHg 79%
    22:00 +21°C° 0.1 mm 2 mps 732 mmHg 82%
    23:00 +20°C° 0.1 mm 2 mps 732 mmHg 83%

    Tomorrow, 22 July, Saturday

    Time Temperature Precipitation Wind Pressure Humidity
    00:00 +20°C° 0.1 mm 2 mps 732 mmHg 84%
    01:00 +19°C° 0.1 mm 2 mps 732 mmHg 86%
    02:00 +20°C° 0.2 mm 1 mps 732 mmHg 87%
    03:00 +20°C° 0.2 mm 1 mps 732 mmHg 88%
    04:00 +19°C° 0.2 mm 1 mps 732 mmHg 89%
    05:00 +20°C° 0.1 mm 1 mps 733 mmHg 87%
    06:00 +21°C° 0.1 mm 1 mps 733 mmHg 84%
    07:00 +20°C° 0.1 mm 0 mps 733 mmHg 82%
    08:00 +24°C° 0 mm 1 mps 733 mmHg 76%
    09:00 +26°C° 0 mm 1 mps 733 mmHg 70%
    10:00 +28°C° 0 mm 1 mps 733 mmHg 64%
    11:00 +28°C° 0.3 mm 1 mps 733 mmHg 62%
    12:00 +29°C° 0.3 mm 1 mps 733 mmHg 61%
    13:00 +30°C° 0.3 mm 1 mps 733 mmHg 59%
    14:00 +30°C° 0.8 mm 1 mps 733 mmHg 59%
    15:00 +30°C° 0.8 mm 1 mps 733 mmHg 60%
    16:00 +30°C° 0.8 mm 1 mps 733 mmHg 60%
    17:00 +28°C° 0.2 mm 1 mps 733 mmHg 66%
    18:00 +25°C° 0.2 mm 0 mps 733 mmHg 71%
    19:00 +24°C° 0.2 mm 0 mps 733 mmHg 77%
    20:00 +23°C° 0 mm 0 mps 733 mmHg 78%
    21:00 +24°C° 0 mm 1 mps 733 mmHg 80%
    22:00 +23°C° 0 mm 1 mps 733 mmHg 81%
    23:00 +23°C° 0.1 mm 1 mps 733 mmHg 83%

    Day after tomorrow, 23 July, Sunday

    Time Temperature Precipitation Wind Pressure Humidity
    00:00 +22°C° 0.1 mm 1 mps 733 mmHg 84%
    01:00 +22°C° 0.1 mm 1 mps 733 mmHg 85%
    02:00 +21°C° 0.3 mm 1 mps 733 mmHg 87%
    03:00 +21°C° 0.3 mm 1 mps 733 mmHg 89%
    04:00 +20°C° 0.3 mm 1 mps 733 mmHg 91%
    05:00 +21°C° 0.3 mm 1 mps 733 mmHg 90%
    06:00 +22°C° 0.3 mm 1 mps 734 mmHg 89%
    07:00 +23°C° 0.3 mm 1 mps 734 mmHg 88%
    08:00 +25°C° 0.2 mm 1 mps 734 mmHg 81%
    09:00 +26°C° 0.2 mm 1 mps 734 mmHg 73%
    10:00 +28°C° 0.2 mm 1 mps 734 mmHg 65%
    11:00 +29°C° 0.7 mm 1 mps 734 mmHg 63%
    12:00 +29°C° 0.7 mm 2 mps 733 mmHg 61%
    13:00 +29°C° 0.7 mm 2 mps 733 mmHg 59%
    14:00 +29°C° 0.4 mm 2 mps 733 mmHg 61%
    15:00 +29°C° 0.4 mm 2 mps 733 mmHg 62%
    16:00 +29°C° 0.4 mm 2 mps 733 mmHg 63%
    17:00 +27°C° 0.5 mm 2 mps 733 mmHg 71%
    18:00 +25°C° 0.5 mm 2 mps 734 mmHg 79%
    19:00 +24°C° 0.5 mm 2 mps 734 mmHg 87%
    20:00 +23°C° 0.3 mm 1 mps 734 mmHg 89%
    21:00 +22°C° 0.3 mm 1 mps 734 mmHg 91%
    22:00 +21°C° 0.3 mm 1 mps 733 mmHg 93%
    23:00 +20°C° 2.1 mm 1 mps 733 mmHg 94%

    24 July, Monday

    Time Temperature Precipitation Wind Pressure Humidity
    00:00 +19°C° 2.1 mm 2 mps 733 mmHg 95%
    01:00 +19°C° 2.1 mm 2 mps 733 mmHg 97%
    02:00 +19°C° 2.5 mm 2 mps 733 mmHg 97%
    03:00 +19°C° 2.5 mm 1 mps 733 mmHg 96%
    04:00 +19°C° 2.5 mm 1 mps 733 mmHg 96%
    05:00 +19°C° 0.3 mm 1 mps 733 mmHg 96%
    06:00 +19°C° 0.3 mm 1 mps 732 mmHg 95%
    07:00 +19°C° 0.3 mm 1 mps 732 mmHg 94%
    08:00 +20°C° 0 mm 1 mps 732 mmHg 89%
    09:00 +21°C° 0 mm 1 mps 731 mmHg 84%
    10:00 +22°C° 0 mm 1 mps 731 mmHg 79%
    11:00 +23°C° 0 mm 1 mps 731 mmHg 72%
    12:00 +24°C° 0 mm 1 mps 730 mmHg 66%
    13:00 +25°C° 0 mm 1 mps 730 mmHg 59%
    14:00 +25°C° 0.1 mm 1 mps 729 mmHg 61%
    15:00 +25°C° 0.1 mm 2 mps 729 mmHg 63%
    16:00 +24°C° 0.1 mm 2 mps 729 mmHg 65%
    17:00 +21°C° 1.8 mm 3 mps 729 mmHg 75%
    18:00 +19°C° 1.8 mm 3 mps 729 mmHg 85%
    19:00 +17°C° 1.8 mm 4 mps 729 mmHg 95%
    20:00 +17°C° 1.1 mm 3 mps 730 mmHg 95%
    21:00 +17°C° 1.1 mm 3 mps 730 mmHg 95%
    22:00 +16°C° 1.1 mm 3 mps 730 mmHg 96%
    23:00 +16°C° 0.1 mm 3 mps 730 mmHg 96%

    25 July, Tuesday

    Time Temperature Precipitation Wind Pressure Humidity
    00:00 +16°C° 0.1 mm 3 mps 730 mmHg 95%
    01:00 +16°C° 0.1 mm 3 mps 730 mmHg 95%
    02:00 +14°C° 0 mm 3 mps 730 mmHg 95%
    03:00 +14°C° 0 mm 3 mps 730 mmHg 95%
    04:00 +14°C° 0 mm 3 mps 730 mmHg 95%
    05:00 +14°C° 0 mm 3 mps 730 mmHg 94%
    06:00 +14°C° 0 mm 3 mps 730 mmHg 93%
    07:00 +16°C° 0 mm 3 mps 730 mmHg 92%
    08:00 +16°C° 0.2 mm 3 mps 730 mmHg 90%
    09:00 +17°C° 0.2 mm 3 mps 730 mmHg 88%
    10:00 +17°C° 0.2 mm 3 mps 730 mmHg 85%
    11:00 +18°C° 0.4 mm 4 mps 730 mmHg 81%
    12:00 +19°C° 0.4 mm 4 mps 730 mmHg 77%
    13:00 +20°C° 0.4 mm 5 mps 730 mmHg 72%
    14:00 +20°C° 0.2 mm 5 mps 730 mmHg 71%
    15:00 +20°C° 0.2 mm 5 mps 730 mmHg 70%
    16:00 +20°C° 0.2 mm 5 mps 730 mmHg 69%
    17:00 +19°C° 0.1 mm 4 mps 730 mmHg 73%
    18:00 +18°C° 0.1 mm 3 mps 730 mmHg 78%
    19:00 +17°C° 0.1 mm 3 mps 731 mmHg 82%
    20:00 +16°C° 0 mm 3 mps 731 mmHg 85%
    21:00 +14°C° 0 mm 3 mps 732 mmHg 89%
    22:00 +13°C° 0 mm 3 mps 732 mmHg 92%
    23:00 +14°C° 0 mm 2 mps 732 mmHg 93%

    26 July, Wednesday

    Time Temperature Precipitation Wind Pressure Humidity
    00:00 +14°C° 0 mm 2 mps 732 mmHg 94%
    01:00 +13°C° 0 mm 2 mps 733 mmHg 94%
    02:00 +13°C° 0 mm 2 mps 733 mmHg 95%
    03:00 +13°C° 0 mm 2 mps 733 mmHg 95%
    04:00 +13°C° 0 mm 2 mps 733 mmHg 95%
    05:00 +14°C° 0 mm 2 mps 733 mmHg 91%
    06:00 +15°C° 0 mm 1 mps 733 mmHg 87%
    07:00 +16°C° 0 mm 1 mps 733 mmHg 84%
    08:00 +18°C° 0 mm 2 mps 733 mmHg 77%
    09:00 +19°C° 0 mm 2 mps 733 mmHg 70%
    10:00 +21°C° 0 mm 3 mps 733 mmHg 63%
    11:00 +22°C° 0 mm 3 mps 733 mmHg 60%
    12:00 +24°C° 0 mm 3 mps 733 mmHg 56%
    13:00 +25°C° 0 mm 2 mps 733 mmHg 53%
    14:00 +25°C° 0.1 mm 2 mps 733 mmHg 53%
    15:00 +25°C° 0.1 mm 2 mps 733 mmHg 54%
    16:00 +25°C° 0.1 mm 2 mps 732 mmHg 54%
    17:00 +24°C° 0.1 mm 2 mps 733 mmHg 62%
    18:00 +22°C° 0.1 mm 1 mps 733 mmHg 70%
    19:00 +21°C° 0.1 mm 1 mps 733 mmHg 78%
    20:00 +20°C° 0 mm 1 mps 733 mmHg 80%
    21:00 +19°C° 0 mm 1 mps 733 mmHg 83%
    22:00 +18°C° 0 mm 1 mps 733 mmHg 85%
    23:00 +16°C° 0 mm 1 mps 733 mmHg 86%
    Show more